Total_Precipitation_Accumulation
0.70 0.71 0.72 0.75 0.79 0.85 0.93 0.96 0.95 0.99 0.99 1.01 1.02 1.03 1.02 1.04 1.08 1.12 1.08 1.06 1.08 1.07 1.06 1.08 1.10 1.08 1.08 1.07 1.10 1.17 1.23 1.31 1.31 1.01 0.82 0.78 0.82 0.83 0.85 0.81 0.78 0.80 0.79
0.65 0.62 0.62 0.64 0.67 0.70 0.74 0.79 0.80 0.84 0.87 0.89 0.91 0.91 0.88 0.86 0.90 0.94 0.97 0.96 0.96 0.97 1.00 1.05 1.08 1.10 1.14 1.15 1.19 1.22 1.25 1.25 1.26 1.13 0.92 0.82 0.77 0.73 0.72 0.70 0.67 0.66 0.63
0.47 0.46 0.48 0.50 0.54 0.59 0.63 0.63 0.66 0.72 0.77 0.79 0.80 0.83 0.84 0.81 0.82 0.84 0.84 0.85 0.86 0.86 0.87 0.91 0.92 0.97 1.03 1.05 1.08 1.13 1.15 1.15 1.15 1.07 0.89 0.74 0.68 0.66 0.69 0.68 0.62 0.59 0.55
0.35 0.35 0.38 0.41 0.44 0.47 0.50 0.49 0.50 0.54 0.59 0.64 0.69 0.72 0.72 0.74 0.78 0.81 0.83 0.82 0.80 0.80 0.79 0.81 0.84 0.89 0.94 0.99 1.04 1.05 1.06 1.09 1.09 1.08 0.99 0.83 0.70 0.64 0.66 0.66 0.63 0.55 0.50
0.38 0.37 0.37 0.37 0.39 0.41 0.43 0.43 0.42 0.43 0.43 0.46 0.53 0.60 0.66 0.67 0.71 0.76 0.78 0.80 0.81 0.81 0.83 0.87 0.92 1.01 1.03 1.00 0.97 0.94 0.95 0.99 1.02 1.02 0.94 0.81 0.70 0.64 0.63 0.58 0.57 0.56 0.54
0.47 0.42 0.39 0.38 0.37 0.35 0.33 0.34 0.34 0.35 0.36 0.39 0.44 0.49 0.55 0.62 0.78 0.77 0.72 0.73 0.81 0.85 0.87 0.86 0.89 0.99 0.97 0.96 0.91 0.86 0.88 0.94 0.96 0.91 0.81 0.68 0.55 0.48 0.48 0.55 0.60 0.66 0.65
0.51 0.47 0.42 0.38 0.36 0.33 0.30 0.31 0.32 0.35 0.38 0.41 0.43 0.47 0.53 0.66 0.83 0.79 0.83 0.75 0.78 0.83 0.85 0.83 0.79 0.75 0.77 0.70 0.75 0.80 0.81 0.81 0.77 0.71 0.67 0.55 0.48 0.44 0.53 0.64 0.66 0.65 0.55
0.52 0.50 0.49 0.49 0.49 0.51 0.50 0.51 0.52 0.51 0.52 0.56 0.62 0.65 0.68 0.77 0.83 0.75 0.72 0.67 0.70 0.72 0.70 0.68 0.64 0.59 0.57 0.57 0.60 0.66 0.59 0.55 0.55 0.51 0.49 0.46 0.46 0.48 0.57 0.68 0.72 0.74 0.66
0.69 0.67 0.68 0.71 0.75 0.79 0.81 0.80 0.80 0.81 0.80 0.78 0.75 0.71 0.68 0.69 0.69 0.63 0.59 0.54 0.55 0.54 0.52 0.51 0.50 0.48 0.54 0.62 0.57 0.53 0.48 0.47 0.51 0.54 0.55 0.55 0.59 0.63 0.65 0.72 0.80 0.89 0.80
0.76 0.79 0.83 0.88 0.94 0.91 0.89 0.86 0.78 0.73 0.72 0.71 0.69 0.66 0.60 0.54 0.49 0.44 0.42 0.39 0.38 0.36 0.34 0.35 0.41 0.42 0.52 0.59 0.52 0.49 0.46 0.40 0.40 0.45 0.47 0.46 0.45 0.49 0.60 0.60 0.68 0.90 0.82
0.71 0.72 0.75 0.74 0.75 0.73 0.70 0.66 0.62 0.55 0.49 0.45 0.42 0.39 0.35 0.33 0.32 0.31 0.31 0.28 0.29 0.31 0.30 0.29 0.31 0.41 0.46 0.49 0.50 0.43 0.43 0.46 0.44 0.43 0.45 0.45 0.44 0.44 0.46 0.47 0.53 0.78 0.94
0.50 0.48 0.45 0.41 0.37 0.37 0.38 0.38 0.37 0.34 0.29 0.26 0.23 0.22 0.20 0.19 0.21 0.24 0.28 0.31 0.33 0.31 0.29 0.28 0.30 0.42 0.47 0.48 0.45 0.44 0.50 0.53 0.47 0.48 0.49 0.46 0.44 0.41 0.39 0.40 0.44 0.50 0.60
0.17 0.15 0.14 0.12 0.11 0.11 0.12 0.13 0.16 0.18 0.17 0.16 0.16 0.16 0.16 0.16 0.19 0.22 0.26 0.32 0.36 0.35 0.31 0.34 0.37 0.41 0.43 0.42 0.43 0.46 0.47 0.44 0.43 0.46 0.43 0.39 0.37 0.39 0.44 0.49 0.51 0.52 0.53
0.03 0.03 0.03 0.04 0.04 0.05 0.07 0.08 0.10 0.11 0.12 0.14 0.15 0.15 0.15 0.15 0.17 0.20 0.24 0.29 0.36 0.37 0.36 0.37 0.39 0.40 0.39 0.39 0.41 0.41 0.40 0.40 0.43 0.44 0.41 0.39 0.43 0.49 0.52 0.54 0.59 0.58 0.62
0.03 0.03 0.04 0.05 0.05 0.06 0.06 0.07 0.09 0.10 0.12 0.16 0.17 0.18 0.20 0.20 0.18 0.27 0.33 0.35 0.38 0.42 0.45 0.43 0.40 0.37 0.36 0.35 0.35 0.35 0.36 0.39 0.42 0.42 0.45 0.48 0.49 0.51 0.50 0.50 0.58 0.64 0.65
0.08 0.07 0.08 0.08 0.09 0.09 0.09 0.10 0.12 0.13 0.15 0.17 0.18 0.20 0.20 0.22 0.26 0.33 0.38 0.41 0.45 0.52 0.56 0.49 0.38 0.33 0.32 0.33 0.35 0.36 0.37 0.38 0.40 0.44 0.48 0.51 0.55 0.56 0.53 0.51 0.55 0.63 0.62
0.13 0.14 0.15 0.15 0.14 0.14 0.14 0.15 0.15 0.17 0.19 0.19 0.19 0.21 0.22 0.24 0.28 0.32 0.36 0.41 0.45 0.52 0.51 0.40 0.34 0.32 0.33 0.35 0.38 0.41 0.40 0.37 0.41 0.48 0.53 0.55 0.60 0.61 0.60 0.59 0.58 0.61 0.58
0.14 0.18 0.21 0.20 0.22 0.23 0.22 0.22 0.23 0.24 0.23 0.21 0.22 0.25 0.27 0.28 0.30 0.32 0.37 0.45 0.45 0.42 0.35 0.30 0.30 0.32 0.35 0.40 0.42 0.45 0.45 0.45 0.47 0.48 0.51 0.56 0.64 0.69 0.66 0.61 0.60 0.62 0.63
0.13 0.16 0.19 0.22 0.24 0.26 0.27 0.27 0.27 0.26 0.24 0.22 0.22 0.26 0.32 0.36 0.38 0.38 0.41 0.43 0.37 0.30 0.25 0.25 0.28 0.34 0.40 0.44 0.46 0.49 0.52 0.54 0.52 0.57 0.58 0.59 0.65 0.75 0.70 0.60 0.61 0.60 0.64
0.14 0.19 0.22 0.22 0.24 0.26 0.28 0.28 0.28 0.26 0.25 0.23 0.21 0.22 0.31 0.42 0.40 0.34 0.34 0.35 0.34 0.30 0.28 0.29 0.31 0.36 0.42 0.47 0.50 0.53 0.56 0.55 0.57 0.62 0.63 0.63 0.65 0.74 0.75 0.66 0.65 0.68 0.62
0.17 0.21 0.26 0.24 0.22 0.24 0.28 0.29 0.29 0.28 0.27 0.24 0.21 0.24 0.40 0.48 0.40 0.32 0.31 0.32 0.34 0.35 0.36 0.37 0.38 0.41 0.46 0.51 0.55 0.56 0.55 0.52 0.55 0.62 0.63 0.63 0.67 0.71 0.66 0.67 0.68 0.71 0.74
0.19 0.22 0.24 0.25 0.26 0.28 0.32 0.32 0.33 0.32 0.31 0.30 0.28 0.32 0.43 0.43 0.37 0.34 0.33 0.33 0.34 0.37 0.40 0.45 0.47 0.45 0.51 0.61 0.67 0.68 0.61 0.53 0.52 0.61 0.65 0.62 0.63 0.65 0.69 0.76 0.79 0.80 0.77
0.21 0.23 0.25 0.27 0.30 0.35 0.38 0.34 0.34 0.36 0.36 0.36 0.36 0.37 0.39 0.40 0.37 0.36 0.35 0.36 0.39 0.42 0.42 0.47 0.50 0.46 0.46 0.55 0.65 0.80 0.83 0.70 0.62 0.69 0.84 0.84 0.80 0.82 0.88 0.90 0.83 0.77 0.67
0.23 0.26 0.29 0.30 0.32 0.35 0.36 0.35 0.35 0.36 0.37 0.39 0.39 0.39 0.38 0.39 0.39 0.39 0.40 0.41 0.43 0.43 0.43 0.46 0.48 0.47 0.47 0.54 0.59 0.64 0.73 0.83 1.00 1.13 1.22 1.33 1.16 0.95 0.91 0.86 0.76 0.68 0.66
0.27 0.29 0.30 0.32 0.34 0.34 0.35 0.34 0.34 0.35 0.37 0.37 0.38 0.38 0.37 0.38 0.39 0.40 0.42 0.43 0.43 0.41 0.39 0.42 0.47 0.50 0.51 0.53 0.57 0.59 0.64 0.79 1.08 1.33 1.34 1.26 1.05 0.88 0.88 0.86 0.76 0.71 0.69
0.30 0.32 0.34 0.36 0.36 0.35 0.36 0.36 0.35 0.36 0.37 0.36 0.36 0.38 0.38 0.38 0.39 0.40 0.41 0.42 0.42 0.40 0.38 0.38 0.41 0.47 0.51 0.51 0.47 0.52 0.64 0.74 0.79 0.85 1.09 1.19 1.05 0.88 0.86 0.92 0.84 0.79 0.75